| time (UTC) | temp C | wind direction | speed KPH | gust KPH | rain 1hr cm | rain 24hr cm | rain mn cm | humidity % | barometer mb |
| 20260506142703 | 13 | 183 | 9.7 | 16.1 | 0.00 | 0.00 | 0.00 | 91 | 1010.8 |
| 20260506141803 | 13 | 184 | 8.0 | 16.1 | 0.00 | 0.00 | 0.00 | 91 | 1011.0 |
| 20260506140903 | 13 | 183 | 8.0 | 16.1 | 0.00 | 0.00 | 0.00 | 91 | 1011.3 |
| 20260506140004 | 13 | 177 | 8.0 | 17.7 | 0.00 | 0.00 | 0.00 | 91 | 1011.4 |
| 20260506135403 | 13 | 177 | 8.0 | 14.5 | 0.00 | 0.00 | 0.00 | 90 | 1011.6 |
| 20260506134503 | 13 | 175 | 8.0 | 20.9 | 0.00 | 0.00 | 0.00 | 90 | 1011.5 |
| 20260506133604 | 13 | 188 | 8.0 | 17.7 | 0.00 | 0.00 | 0.00 | 91 | 1011.8 |
| 20260506132703 | 13 | 183 | 9.7 | 24.1 | 0.00 | 0.00 | 0.00 | 91 | 1011.7 |
| 20260506131803 | 13 | 183 | 8.0 | 16.1 | 0.00 | 0.00 | 0.00 | 91 | 1011.5 |
| 20260506130903 | 13 | 182 | 8.0 | 16.1 | 0.00 | 0.00 | 0.00 | 90 | 1011.4 |
| 20260506130220 | 13 | 182 | 8.0 | 16.1 | 0.00 | 0.00 | 0.00 | 91 | 1011.5 |
| 20260506125616 | 13 | 185 | 8.0 | 16.1 | 0.00 | 0.00 | 0.00 | 92 | 1011.3 |
| 20260506124718 | 13 | 190 | 8.0 | 16.1 | 0.00 | 0.00 | 0.00 | 92 | 1011.4 |
| 20260506123603 | 13 | 189 | 6.4 | 14.5 | 0.00 | 0.00 | 0.00 | 92 | 1011.6 |
| 20260506122918 | 13 | 186 | 8.0 | 16.1 | 0.00 | 0.00 | 0.00 | 92 | 1011.5 |
| 20260506121803 | 13 | 193 | 8.0 | 14.5 | 0.00 | 0.00 | 0.00 | 91 | 1011.6 |
| 20260506120903 | 13 | 193 | 9.7 | 17.7 | 0.00 | 0.00 | 0.00 | 92 | 1011.9 |
| 20260506120221 | 13 | 186 | 9.7 | 17.7 | 0.00 | 0.00 | 0.00 | 92 | 1011.8 |
| 20260506115404 | 13 | 185 | 9.7 | 17.7 | 0.00 | 0.00 | 0.00 | 93 | 1011.8 |
| 20260506114503 | 13 | 192 | 9.7 | 17.7 | 0.00 | 0.00 | 0.00 | 93 | 1011.7 |
| 20260506113603 | 13 | 188 | 9.7 | 20.9 | 0.00 | 0.00 | 0.00 | 93 | 1011.7 |
| 20260506112703 | 13 | 192 | 8.0 | 17.7 | 0.00 | 0.00 | 0.00 | 94 | 1011.6 |
| 20260506111803 | 12 | 187 | 9.7 | 16.1 | 0.00 | 0.00 | 0.00 | 94 | 1011.6 |
| 20260506110903 | 12 | 194 | 8.0 | 16.1 | 0.00 | 0.00 | 0.00 | 95 | 1011.6 |
| 20260506110003 | 12 | 191 | 9.7 | 20.9 | 0.00 | 0.00 | 0.00 | 95 | 1011.7 |
| 20260506105403 | 12 | 189 | 9.7 | 17.7 | 0.00 | 0.00 | 0.00 | 95 | 1011.7 |
| 20260506104503 | 12 | 185 | 8.0 | 16.1 | 0.00 | 0.00 | 0.00 | 95 | 1011.9 |
| 20260506103603 | 12 | 190 | 8.0 | 16.1 | 0.00 | 0.00 | 0.00 | 95 | 1011.6 |
| 20260506102703 | 12 | 189 | 8.0 | 16.1 | 0.00 | 0.00 | 0.00 | 95 | 1011.6 |
| 20260506101803 | 12 | 190 | 8.0 | 16.1 | 0.00 | 0.00 | 0.00 | 95 | 1011.4 |
| 20260506100903 | 12 | 196 | 9.7 | 17.7 | 0.00 | 0.00 | 0.00 | 95 | 1011.4 |
| 20260506100003 | 12 | 190 | 9.7 | 17.7 | 0.00 | 0.00 | 0.00 | 95 | 1011.5 |
| 20260506095403 | 12 | 188 | 9.7 | 17.7 | 0.00 | 0.00 | 0.00 | 95 | 1011.3 |
| 20260506094503 | 12 | 195 | 9.7 | 17.7 | 0.00 | 0.00 | 0.00 | 95 | 1011.4 |
| 20260506093603 | 12 | 186 | 9.7 | 20.9 | 0.00 | 0.00 | 0.00 | 95 | 1011.4 |
| 20260506092703 | 12 | 190 | 9.7 | 17.7 | 0.00 | 0.00 | 0.00 | 95 | 1011.4 |
| 20260506092017 | 12 | 189 | 8.0 | 17.7 | 0.00 | 0.00 | 0.00 | 95 | 1011.5 |
| 20260506090903 | 12 | 178 | 8.0 | 17.7 | 0.00 | 0.00 | 0.00 | 94 | 1011.3 |
| 20260506090216 | 12 | 182 | 9.7 | 17.7 | 0.00 | 0.00 | 0.00 | 94 | 1011.5 |
| 20260506085403 | 12 | 188 | 8.0 | 16.1 | 0.00 | 0.00 | 0.00 | 94 | 1011.6 |
| 20260506084503 | 12 | 185 | 8.0 | 16.1 | 0.00 | 0.00 | 0.00 | 94 | 1011.6 |
| 20260506083818 | 12 | 186 | 8.0 | 16.1 | 0.00 | 0.00 | 0.00 | 94 | 1011.9 |
| 20260506082920 | 12 | 182 | 9.7 | 16.1 | 0.00 | 0.00 | 0.00 | 94 | 1011.7 |
| 20260506082018 | 12 | 189 | 9.7 | 20.9 | 0.00 | 0.00 | 0.00 | 93 | 1011.8 |
| 20260506080903 | 12 | 186 | 8.0 | 16.1 | 0.00 | 0.00 | 0.00 | 93 | 1011.8 |
| 20260506072703 | 12 | 188 | 8.0 | 20.9 | 0.00 | 0.00 | 0.00 | 93 | 1012.0 |
| 20260506072018 | 12 | 195 | 8.0 | 16.1 | 0.00 | 0.00 | 0.00 | 93 | 1012.1 |
| 20260506070903 | 12 | 191 | 8.0 | 17.7 | 0.00 | 0.00 | 0.00 | 93 | 1012.0 |
| 20260506062019 | 12 | 190 | 9.7 | 17.7 | 0.00 | 0.00 | 0.00 | 92 | 1011.9 |
| 20260506060903 | 12 | 191 | 8.0 | 20.9 | 0.00 | 0.00 | 0.00 | 92 | 1012.1 |
| 20260506060218 | 12 | 193 | 8.0 | 16.1 | 0.00 | 0.00 | 0.00 | 92 | 1011.9 |
| 20260506050903 | 13 | 191 | 11.3 | 24.1 | 0.00 | 0.00 | 0.00 | 90 | 1012.5 |
| 20260506044503 | 13 | 187 | 9.7 | 20.9 | 0.00 | 0.00 | 0.00 | 90 | 1012.6 |
| 20260506043603 | 13 | 192 | 11.3 | 20.9 | 0.00 | 0.00 | 0.00 | 90 | 1012.5 |
| 20260506042703 | 13 | 190 | 11.3 | 22.5 | 0.00 | 0.00 | 0.00 | 89 | 1012.4 |
| 20260506041803 | 13 | 188 | 11.3 | 20.9 | 0.00 | 0.00 | 0.00 | 89 | 1012.3 |
| 20260506041117 | 13 | 186 | 11.3 | 20.9 | 0.00 | 0.00 | 0.00 | 89 | 1012.4 |
| 20260506040220 | 13 | 189 | 12.9 | 27.4 | 0.00 | 0.00 | 0.00 | 89 | 1012.4 |
| 20260506035621 | 13 | 192 | 12.9 | 27.4 | 0.00 | 0.00 | 0.00 | 89 | 1012.4 |
| 20260506034503 | 13 | 188 | 12.9 | 22.5 | 0.00 | 0.00 | 0.00 | 88 | 1012.3 |
| 20260506033821 | 13 | 187 | 12.9 | 24.1 | 0.00 | 0.00 | 0.00 | 88 | 1012.2 |
| 20260506032703 | 13 | 190 | 12.9 | 27.4 | 0.00 | 0.00 | 0.00 | 88 | 1012.0 |
| 20260506031803 | 13 | 193 | 11.3 | 27.4 | 0.00 | 0.00 | 0.00 | 88 | 1012.2 |
| 20260506030903 | 13 | 198 | 11.3 | 22.5 | 0.00 | 0.00 | 0.00 | 88 | 1012.0 |
| 20260506030003 | 13 | 190 | 11.3 | 22.5 | 0.00 | 0.00 | 0.00 | 88 | 1012.2 |
| 20260506025403 | 13 | 185 | 12.9 | 22.5 | 0.00 | 0.00 | 0.00 | 87 | 1012.4 |
| 20260506024503 | 13 | 191 | 11.3 | 20.9 | 0.00 | 0.00 | 0.00 | 88 | 1012.1 |
| 20260506023816 | 13 | 192 | 12.9 | 25.7 | 0.00 | 0.00 | 0.00 | 88 | 1012.2 |
| 20260506022703 | 13 | 191 | 12.9 | 25.7 | 0.00 | 0.00 | 0.00 | 88 | 1012.0 |
| 20260506022016 | 14 | 194 | 11.3 | 25.7 | 0.00 | 0.00 | 0.00 | 87 | 1012.1 |
| 20260506021119 | 14 | 189 | 11.3 | 24.1 | 0.00 | 0.00 | 0.00 | 87 | 1012.0 |
| 20260506020003 | 13 | 196 | 11.3 | 24.1 | 0.00 | 0.00 | 0.00 | 87 | 1012.2 |
| 20260506015617 | 13 | 191 | 9.7 | 24.1 | 0.00 | 0.00 | 0.00 | 86 | 1012.3 |
| 20260506014504 | 14 | 192 | 11.3 | 22.5 | 0.00 | 0.00 | 0.00 | 86 | 1012.2 |
| 20260506013603 | 14 | 188 | 9.7 | 22.5 | 0.00 | 0.00 | 0.00 | 86 | 1012.2 |
| 20260506012703 | 14 | 192 | 9.7 | 17.7 | 0.00 | 0.00 | 0.00 | 85 | 1012.0 |
| 20260506011803 | 14 | 190 | 9.7 | 17.7 | 0.00 | 0.00 | 0.00 | 85 | 1011.9 |
| 20260506010903 | 14 | 189 | 9.7 | 17.7 | 0.00 | 0.00 | 0.00 | 85 | 1012.0 |
| 20260506010217 | 14 | 185 | 9.7 | 20.9 | 0.00 | 0.00 | 0.00 | 84 | 1011.9 |
| 20260506005403 | 14 | 191 | 11.3 | 22.5 | 0.00 | 0.00 | 0.00 | 84 | 1011.6 |
| 20260506004503 | 14 | 193 | 11.3 | 24.1 | 0.00 | 0.00 | 0.00 | 84 | 1012.0 |
| 20260506003603 | 14 | 188 | 11.3 | 25.7 | 0.00 | 0.00 | 0.00 | 84 | 1011.7 |
| 20260506002920 | 15 | 179 | 11.3 | 27.4 | 0.00 | 0.00 | 0.00 | 83 | 1011.6 |
| 20260506002018 | 15 | 185 | 12.9 | 29.0 | 0.00 | 0.00 | 0.00 | 82 | 1011.3 |
| 20260506000903 | 15 | 200 | 14.5 | 29.0 | 0.00 | 0.00 | 0.00 | 82 | 1011.2 |
| 20260506000003 | 15 | 189 | 14.5 | 29.0 | 0.00 | 0.00 | 0.00 | 82 | 1011.3 |
| 20260505235403 | 15 | 193 | 14.5 | 27.4 | 0.00 | 0.00 | 0.00 | 82 | 1010.9 |
| 20260505234721 | 15 | 194 | 14.5 | 27.4 | 0.00 | 0.00 | 0.00 | 81 | 1010.9 |
| 20260505233603 | 15 | 183 | 14.5 | 27.4 | 0.00 | 0.00 | 0.00 | 80 | 1010.5 |
| 20260505232703 | 15 | 190 | 14.5 | 27.4 | 0.00 | 0.00 | 0.00 | 80 | 1010.4 |
| 20260505231803 | 16 | 193 | 12.9 | 27.4 | 0.00 | 0.00 | 0.00 | 79 | 1010.1 |
| 20260505230903 | 15 | 188 | 12.9 | 27.4 | 0.00 | 0.00 | 0.00 | 80 | 1010.1 |
| 20260505230003 | 15 | 191 | 12.9 | 25.7 | 0.00 | 0.00 | 0.00 | 80 | 1010.0 |
| 20260505225403 | 15 | 193 | 14.5 | 25.7 | 0.00 | 0.00 | 0.00 | 80 | 1010.2 |
| 20260505224503 | 15 | 188 | 12.9 | 30.6 | 0.00 | 0.00 | 0.00 | 80 | 1009.9 |
| 20260505223603 | 16 | 178 | 12.9 | 24.1 | 0.00 | 0.00 | 0.00 | 79 | 1010.0 |
| 20260505222703 | 16 | 186 | 11.3 | 20.9 | 0.00 | 0.00 | 0.00 | 79 | 1009.6 |
| 20260505221803 | 16 | 181 | 11.3 | 20.9 | 0.00 | 0.00 | 0.00 | 79 | 1010.0 |
| 20260505220903 | 16 | 181 | 11.3 | 20.9 | 0.00 | 0.00 | 0.00 | 79 | 1009.8 |
| 20260505220004 | 16 | 186 | 11.3 | 27.4 | 0.00 | 0.00 | 0.00 | 79 | 1010.0 |
| 20260505215403 | 16 | 185 | 11.3 | 24.1 | 0.00 | 0.00 | 0.00 | 79 | 1009.7 |
| 20260505214503 | 16 | 187 | 11.3 | 24.1 | 0.00 | 0.00 | 0.00 | 78 | 1010.0 |
| 20260505213820 | 16 | 181 | 11.3 | 25.7 | 0.00 | 0.00 | 0.00 | 78 | 1009.9 |
| 20260505212703 | 16 | 184 | 11.3 | 24.1 | 0.00 | 0.00 | 0.00 | 78 | 1009.7 |
| 20260505211803 | 16 | 177 | 11.3 | 24.1 | 0.00 | 0.00 | 0.00 | 78 | 1009.4 |
| 20260505210903 | 16 | 185 | 11.3 | 25.7 | 0.00 | 0.00 | 0.00 | 78 | 1009.4 |
| 20260505210003 | 16 | 192 | 11.3 | 22.5 | 0.00 | 0.00 | 0.00 | 79 | 1009.6 |
| 20260505205621 | 16 | 192 | 11.3 | 22.5 | 0.00 | 0.00 | 0.00 | 79 | 1009.8 |
| 20260505204718 | 15 | 188 | 11.3 | 22.5 | 0.00 | 0.00 | 0.00 | 81 | 1009.6 |
| 20260505203603 | 15 | 183 | 11.3 | 22.5 | 0.00 | 0.00 | 0.00 | 80 | 1009.4 |
| 20260505202703 | 16 | 178 | 11.3 | 20.9 | 0.00 | 0.00 | 0.00 | 79 | 1009.6 |
| 20260505201803 | 16 | 181 | 9.7 | 17.7 | 0.00 | 0.00 | 0.00 | 79 | 1009.7 |
| 20260505200903 | 16 | 184 | 9.7 | 20.9 | 0.00 | 0.00 | 0.00 | 79 | 1009.6 |
| 20260505200003 | 16 | 178 | 9.7 | 22.5 | 0.00 | 0.00 | 0.00 | 78 | 1010.0 |
| 20260505195403 | 16 | 176 | 9.7 | 22.5 | 0.00 | 0.00 | 0.00 | 79 | 1009.7 |
| 20260505194503 | 16 | 187 | 9.7 | 22.5 | 0.00 | 0.00 | 0.00 | 78 | 1009.9 |
| 20260505193603 | 16 | 182 | 9.7 | 17.7 | 0.00 | 0.00 | 0.00 | 78 | 1010.2 |
| 20260505192918 | 16 | 184 | 8.0 | 17.7 | 0.00 | 0.00 | 0.00 | 78 | 1010.3 |
| 20260505192021 | 16 | 188 | 8.0 | 16.1 | 0.00 | 0.00 | 0.00 | 79 | 1010.7 |
| 20260505191118 | 16 | 190 | 9.7 | 17.7 | 0.00 | 0.00 | 0.00 | 78 | 1010.8 |
| 20260505190004 | 16 | 193 | 9.7 | 16.1 | 0.00 | 0.00 | 0.00 | 79 | 1010.7 |
| 20260505185617 | 16 | 193 | 9.7 | 16.1 | 0.00 | 0.00 | 0.00 | 79 | 1011.0 |
| 20260505184503 | 16 | 180 | 8.0 | 16.1 | 0.00 | 0.00 | 0.00 | 79 | 1011.1 |
| 20260505183603 | 16 | 175 | 8.0 | 16.1 | 0.00 | 0.00 | 0.00 | 80 | 1011.4 |
| 20260505182703 | 16 | 183 | 8.0 | 16.1 | 0.00 | 0.00 | 0.00 | 79 | 1011.3 |
| 20260505181803 | 16 | 178 | 8.0 | 16.1 | 0.00 | 0.00 | 0.00 | 79 | 1011.2 |
| 20260505180903 | 16 | 187 | 8.0 | 16.1 | 0.00 | 0.00 | 0.00 | 80 | 1011.5 |
| 20260505180221 | 16 | 189 | 6.4 | 16.1 | 0.00 | 0.00 | 0.00 | 80 | 1011.7 |
| 20260505175403 | 16 | 179 | 6.4 | 14.5 | 0.00 | 0.00 | 0.00 | 79 | 1011.8 |
| 20260505174503 | 16 | 187 | 6.4 | 14.5 | 0.00 | 0.00 | 0.00 | 81 | 1011.9 |
| 20260505173603 | 16 | 193 | 6.4 | 12.9 | 0.00 | 0.00 | 0.00 | 80 | 1012.0 |
| 20260505172703 | 16 | 187 | 4.8 | 9.7 | 0.00 | 0.00 | 0.00 | 80 | 1012.2 |
| 20260505171803 | 16 | 182 | 4.8 | 11.3 | 0.00 | 0.00 | 0.00 | 81 | 1012.3 |
| 20260505170903 | 16 | 183 | 4.8 | 9.7 | 0.00 | 0.00 | 0.00 | 81 | 1012.2 |
| 20260505170003 | 16 | 191 | 6.4 | 12.9 | 0.00 | 0.00 | 0.00 | 82 | 1012.2 |
| 20260505165403 | 15 | 186 | 4.8 | 12.9 | 0.00 | 0.00 | 0.00 | 82 | 1012.4 |
| 20260505164503 | 15 | 183 | 4.8 | 12.9 | 0.00 | 0.00 | 0.00 | 82 | 1012.4 |
| 20260505163603 | 15 | 191 | 6.4 | 11.3 | 0.00 | 0.00 | 0.00 | 81 | 1012.5 |
| 20260505162703 | 16 | 186 | 4.8 | 11.3 | 0.00 | 0.00 | 0.00 | 80 | 1012.5 |
| 20260505161803 | 16 | 197 | 6.4 | 11.3 | 0.00 | 0.00 | 0.00 | 80 | 1012.7 |
| 20260505160903 | 16 | 189 | 6.4 | 11.3 | 0.00 | 0.00 | 0.00 | 80 | 1012.9 |
| 20260505152703 | 16 | 187 | 4.8 | 9.7 | 0.00 | 0.00 | 0.00 | 80 | 1013.0 |
| 20260505151803 | 16 | 186 | 3.2 | 6.4 | 0.00 | 0.00 | 0.00 | 79 | 1013.1 |
| 20260505151120 | 16 | 190 | 4.8 | 6.4 | 0.00 | 0.00 | 0.00 | 81 | 1013.1 |